Mayfld Grav Cnty AP, Mayfield, KY

5:46 AM CDT on July 19, 2019 (GMT -0500)
Mayfld Grav Cnty AP, Mayfield

Weather History for KM25 - May, 2019

Change the Weather History Date:

Monday, May 13, 2019

  Actual Average (KPAH) Record (KPAH)
Temperature  
Mean Temperature 54 °F -  
Max Temperature 62 °F 76 °F 91 °F (2018)
Min Temperature 46 °F 54 °F 37 °F (2013)
Degree Days  
Heating Degree Days 11    
Growing Degree Days 4 (Base 50)    
Moisture  
Dew Point 47 °F    
Average Humidity 79    
Maximum Humidity 100    
Minimum Humidity 52    
Precipitation  
Precipitation 0.00 in - - ()
Sea Level Pressure  
Sea Level Pressure 29.98 in    
Wind  
Wind Speed 3 mph (NNW)    
Max Wind Speed 12 mph    
Max Gust Speed 17 mph    
Visibility 10 miles    
Events      
Averages and records for this station are not official NWS values.
T = Trace of Precipitation, MM = Missing Value Source: NWS Daily Summary

Daily Weather History Graph

Daily Weather History Graph

Search for Another Location

Airport or City:

Astronomy

May. 13, 2019 Rise Set
Actual Time 5:48 AM CDT 7:53 PM CDT
Civil Twilight 5:19 AM CDT 8:21 PM CDT
Nautical Twilight 4:44 AM CDT 8:57 PM CDT
Astronomical Twilight 4:07 AM CDT 9:35 PM CDT
Moon 2:16 PM CDT (5/13) 2:54 AM CDT (5/13)
Length of Visible Light 15h 02m
Length of Day
14h 04m
Waxing Gibbous, 69% of the Moon is Illuminated
May 13
Waxing Gibbous
May 18
Full
May 26
Last Quarter
Jun 3
New
Jun 10
First Quarter

Hourly Weather History & Observations

Time (CDT) Temp. Dew Point Humidity Pressure Visibility Wind Dir Wind Speed Gust Speed Precip Events Conditions
12:15 AM 51.8 °F 50.0 °F 94% 29.89 in 10.0 mi Calm Calm - N/A   Overcast
12:35 AM 51.8 °F 50.0 °F 94% 29.87 in 10.0 mi NNE 4.6 mph - N/A   Overcast
12:55 AM 51.8 °F 50.0 °F 94% 29.88 in 10.0 mi Calm Calm - N/A   Mostly Cloudy
1:15 AM 50.0 °F 50.0 °F 100% 29.88 in 10.0 mi Calm Calm - N/A   Mostly Cloudy
1:35 AM 50.0 °F 50.0 °F 100% 29.88 in 10.0 mi Calm Calm - N/A   Scattered Clouds
1:55 AM 50.0 °F 50.0 °F 100% 29.88 in 10.0 mi Calm Calm - N/A   Mostly Cloudy
2:15 AM 50.0 °F 50.0 °F 100% 29.88 in 10.0 mi Calm Calm - N/A   Overcast
2:35 AM 50.0 °F 50.0 °F 100% 29.88 in 10.0 mi Calm Calm - N/A   Overcast
2:55 AM 50.0 °F 50.0 °F 100% 29.89 in 10.0 mi Calm Calm - N/A   Mostly Cloudy
3:15 AM 50.0 °F 50.0 °F 100% 29.89 in 10.0 mi Calm Calm - N/A   Overcast
3:35 AM 50.0 °F 50.0 °F 100% 29.90 in 10.0 mi Calm Calm - N/A   Overcast
3:55 AM 50.0 °F 50.0 °F 100% 29.91 in 10.0 mi Calm Calm - N/A   Mostly Cloudy
4:15 AM 50.0 °F 50.0 °F 100% 29.91 in 10.0 mi Calm Calm - N/A   Overcast
4:35 AM 50.0 °F 50.0 °F 100% 29.92 in 7.0 mi Calm Calm - N/A   Overcast
4:55 AM 50.0 °F 50.0 °F 100% 29.92 in 7.0 mi Calm Calm - N/A   Overcast
5:15 AM 50.0 °F 48.2 °F 94% 29.92 in 7.0 mi Calm Calm - N/A   Mostly Cloudy
5:35 AM 50.0 °F 50.0 °F 100% 29.93 in 5.0 mi Calm Calm - N/A   Overcast
5:55 AM 50.0 °F 50.0 °F 100% 29.94 in 5.0 mi Calm Calm - N/A   Overcast
6:15 AM 50.0 °F 50.0 °F 100% 29.96 in 5.0 mi Calm Calm - N/A   Overcast
6:35 AM 50.0 °F 50.0 °F 100% 29.96 in 5.0 mi Calm Calm - N/A   Mostly Cloudy
6:55 AM 50.0 °F 50.0 °F 100% 29.97 in 10.0 mi Calm Calm - N/A   Scattered Clouds
7:15 AM 51.8 °F 50.0 °F 94% 29.97 in 10.0 mi Calm Calm - N/A   Clear
7:35 AM 51.8 °F 50.0 °F 94% 29.98 in 10.0 mi NNW 3.5 mph - N/A   Clear
7:55 AM 53.6 °F 48.2 °F 82% 29.98 in 10.0 mi NNW 6.9 mph - N/A   Mostly Cloudy
8:15 AM 53.6 °F 48.2 °F 82% 29.98 in 10.0 mi Calm Calm - N/A   Mostly Cloudy
8:35 AM 51.8 °F 46.4 °F 82% 29.98 in 10.0 mi NW 6.9 mph - N/A   Scattered Clouds
8:55 AM 53.6 °F 46.4 °F 77% 29.99 in 10.0 mi NNW 5.8 mph - N/A   Mostly Cloudy
9:15 AM 55.4 °F 48.2 °F 77% 29.99 in 10.0 mi North 6.9 mph - N/A   Mostly Cloudy
9:35 AM 55.4 °F 48.2 °F 77% 30.00 in 10.0 mi NW 8.1 mph - N/A   Overcast
9:55 AM 55.4 °F 46.4 °F 72% 30.00 in 10.0 mi North 5.8 mph - N/A   Overcast
10:15 AM 55.4 °F 48.2 °F 77% 30.01 in 10.0 mi WNW 5.8 mph - N/A   Overcast
10:35 AM 55.4 °F 48.2 °F 77% 30.01 in 10.0 mi WNW 3.5 mph - N/A   Overcast
10:55 AM 57.2 °F 46.4 °F 67% 30.01 in 10.0 mi WNW 5.8 mph - N/A   Overcast
11:15 AM 57.2 °F 46.4 °F 67% 30.01 in 10.0 mi NNW 9.2 mph - N/A   Overcast
11:35 AM 59.0 °F 48.2 °F 67% 30.01 in 10.0 mi North 8.1 mph - N/A   Overcast
11:55 AM 57.2 °F 46.4 °F 67% 30.01 in 10.0 mi NW 4.6 mph - N/A   Overcast
12:15 PM 59.0 °F 46.4 °F 63% 30.01 in 10.0 mi NNW 9.2 mph - N/A   Overcast
12:35 PM 60.8 °F 46.4 °F 59% 30.00 in 10.0 mi NW 8.1 mph - N/A   Overcast
12:55 PM 60.8 °F 46.4 °F 59% 30.00 in 10.0 mi North 6.9 mph - N/A   Overcast
1:15 PM 59.0 °F 46.4 °F 63% 30.00 in 10.0 mi NNW 5.8 mph - N/A   Overcast
1:35 PM 59.0 °F 44.6 °F 59% 30.00 in 10.0 mi NNW 5.8 mph - N/A   Overcast
1:55 PM 59.0 °F 46.4 °F 63% 30.00 in 10.0 mi NNW 8.1 mph - N/A   Overcast
2:35 PM 59.0 °F 44.6 °F 59% 30.00 in 10.0 mi NW 6.9 mph - N/A   Overcast
2:55 PM 60.8 °F 44.6 °F 55% 30.00 in 10.0 mi NW 6.9 mph - N/A   Overcast
3:15 PM 62.6 °F 44.6 °F 52% 29.99 in 10.0 mi NW 9.2 mph - N/A   Overcast
3:35 PM 60.8 °F 44.6 °F 55% 29.99 in 10.0 mi NW 6.9 mph 17.3 mph N/A   Mostly Cloudy
3:55 PM 60.8 °F 44.6 °F 55% 30.00 in 10.0 mi NW 9.2 mph - N/A   Mostly Cloudy
4:15 PM 60.8 °F 44.6 °F 55% 30.00 in 10.0 mi NNW 11.5 mph - N/A   Mostly Cloudy
4:35 PM 60.8 °F 44.6 °F 55% 30.00 in 10.0 mi NW 10.4 mph - N/A   Overcast
4:55 PM 60.8 °F 42.8 °F 52% 30.00 in 10.0 mi NNW 6.9 mph - N/A   Overcast
5:15 PM 60.8 °F 44.6 °F 55% 30.01 in 10.0 mi North 4.6 mph - N/A   Overcast
5:55 PM 60.8 °F 42.8 °F 52% 30.01 in 10.0 mi NW 6.9 mph - N/A   Overcast
6:15 PM 60.8 °F 42.8 °F 52% 30.01 in 10.0 mi NNW 6.9 mph - N/A   Overcast
6:35 PM 59.0 °F 42.8 °F 55% 30.01 in 10.0 mi North 4.6 mph - N/A   Overcast
6:55 PM 60.8 °F 42.8 °F 52% 30.01 in 10.0 mi North 5.8 mph - N/A   Mostly Cloudy
7:15 PM 59.0 °F 42.8 °F 55% 30.02 in 10.0 mi North 4.6 mph - N/A   Scattered Clouds
7:35 PM 59.0 °F 44.6 °F 59% 30.02 in 10.0 mi North 3.5 mph - N/A   Mostly Cloudy
7:55 PM 55.4 °F 44.6 °F 67% 30.03 in 10.0 mi North 3.5 mph - N/A   Scattered Clouds
8:15 PM 53.6 °F 44.6 °F 72% 30.03 in 10.0 mi Calm Calm - N/A   Clear
8:35 PM 53.6 °F 44.6 °F 72% 30.04 in 10.0 mi Calm Calm - N/A   Clear
8:55 PM 51.8 °F 46.4 °F 82% 30.04 in 10.0 mi NNE 3.5 mph - N/A   Clear
9:15 PM 51.8 °F 46.4 °F 82% 30.04 in 10.0 mi Calm Calm - N/A   Clear
9:35 PM 50.0 °F 46.4 °F 87% 30.05 in 10.0 mi Calm Calm - N/A   Clear
10:15 PM 48.2 °F 46.4 °F 93% 30.05 in 10.0 mi Calm Calm - N/A   Clear
10:35 PM 46.4 °F 44.6 °F 93% 30.05 in 10.0 mi Calm Calm - N/A   Clear
10:55 PM 46.4 °F 44.6 °F 93% 30.05 in 10.0 mi Calm Calm - N/A   Clear
11:15 PM 46.4 °F 44.6 °F 93% 30.05 in 10.0 mi Calm Calm - N/A   Clear
11:35 PM 46.4 °F 44.6 °F 93% 30.05 in 10.0 mi Calm Calm - N/A   Clear
11:55 PM 46.4 °F 44.6 °F 93% 30.05 in 10.0 mi Calm Calm - N/A   Clear